Year,Month,Day,Hour,Minute,Value (Times are PST for insolation in W/m^2)
2008,04,22,00,00,0.00
2008,04,22,00,01,0.00
2008,04,22,00,02,0.00
2008,04,22,00,03,0.00
2008,04,22,00,04,0.00
2008,04,22,00,05,0.00
2008,04,22,00,06,0.00
2008,04,22,00,07,0.00
2008,04,22,00,08,0.00
2008,04,22,00,09,0.00
2008,04,22,00,10,0.00
2008,04,22,00,11,0.00
2008,04,22,00,12,0.00
2008,04,22,00,13,0.00
2008,04,22,00,14,0.00
2008,04,22,00,15,0.00
2008,04,22,00,16,0.00
2008,04,22,00,17,0.00
2008,04,22,00,18,0.00
2008,04,22,00,19,0.00
2008,04,22,00,20,0.00
2008,04,22,00,21,0.00
2008,04,22,00,22,0.00
2008,04,22,00,23,0.00
2008,04,22,00,24,0.00
2008,04,22,00,25,0.00
2008,04,22,00,26,0.00
2008,04,22,00,27,0.00
2008,04,22,00,28,0.00
2008,04,22,00,29,0.00
2008,04,22,00,30,0.00
2008,04,22,00,31,0.00
2008,04,22,00,32,0.00
2008,04,22,00,33,0.00
2008,04,22,00,34,0.00
2008,04,22,00,35,0.00
2008,04,22,00,36,0.00
2008,04,22,00,37,0.00
2008,04,22,00,38,0.00
2008,04,22,00,39,0.00
2008,04,22,00,40,0.00
2008,04,22,00,41,0.00
2008,04,22,00,42,0.00
2008,04,22,00,43,0.00
2008,04,22,00,44,0.00
2008,04,22,00,45,0.00
2008,04,22,00,46,0.00
2008,04,22,00,47,0.00
2008,04,22,00,48,0.00
2008,04,22,00,49,0.00
2008,04,22,00,50,0.00
2008,04,22,00,51,0.00
2008,04,22,00,52,0.00
2008,04,22,00,53,0.00
2008,04,22,00,54,0.00
2008,04,22,00,55,0.00
2008,04,22,00,56,0.00
2008,04,22,00,57,0.00
2008,04,22,00,58,0.00
2008,04,22,00,59,0.00
2008,04,22,01,00,0.00
2008,04,22,01,01,0.00
2008,04,22,01,02,0.00
2008,04,22,01,03,0.00
2008,04,22,01,04,0.00
2008,04,22,01,05,0.00
2008,04,22,01,06,0.00
2008,04,22,01,07,0.00
2008,04,22,01,08,0.00
2008,04,22,01,09,0.00
2008,04,22,01,10,0.00
2008,04,22,01,11,0.00
2008,04,22,01,12,0.00
2008,04,22,01,13,0.00
2008,04,22,01,14,0.00
2008,04,22,01,15,0.00
2008,04,22,01,16,0.00
2008,04,22,01,17,0.00
2008,04,22,01,18,0.00
2008,04,22,01,19,0.00
2008,04,22,01,20,0.00
2008,04,22,01,21,0.00
2008,04,22,01,22,0.00
2008,04,22,01,23,0.00
2008,04,22,01,24,0.00
2008,04,22,01,25,0.00
2008,04,22,01,26,0.00
2008,04,22,01,27,0.00
2008,04,22,01,28,0.00
2008,04,22,01,29,0.00
2008,04,22,01,30,0.00
2008,04,22,01,31,0.00
2008,04,22,01,32,0.00
2008,04,22,01,33,0.00
2008,04,22,01,34,0.00
2008,04,22,01,35,0.00
2008,04,22,01,36,0.00
2008,04,22,01,37,0.00
2008,04,22,01,38,0.00
2008,04,22,01,39,0.00
2008,04,22,01,40,0.00
2008,04,22,01,41,0.00
2008,04,22,01,42,0.00
2008,04,22,01,43,0.00
2008,04,22,01,44,0.00
2008,04,22,01,45,0.00
2008,04,22,01,46,0.00
2008,04,22,01,47,0.00
2008,04,22,01,48,0.00
2008,04,22,01,49,0.00
2008,04,22,01,50,0.00
2008,04,22,01,51,0.00
2008,04,22,01,52,0.00
2008,04,22,01,53,0.00
2008,04,22,01,54,0.00
2008,04,22,01,55,0.00
2008,04,22,01,56,0.00
2008,04,22,01,57,0.00
2008,04,22,01,58,0.00
2008,04,22,01,59,0.00
2008,04,22,02,00,0.00
2008,04,22,02,01,0.00
2008,04,22,02,02,0.00
2008,04,22,02,03,0.00
2008,04,22,02,04,0.00
2008,04,22,02,05,0.00
2008,04,22,02,06,0.00
2008,04,22,02,07,0.00
2008,04,22,02,08,0.00
2008,04,22,02,09,0.00
2008,04,22,02,10,0.00
2008,04,22,02,11,0.00
2008,04,22,02,12,0.00
2008,04,22,02,13,0.00
2008,04,22,02,14,0.00
2008,04,22,02,15,0.00
2008,04,22,02,16,0.00
2008,04,22,02,17,0.00
2008,04,22,02,18,0.00
2008,04,22,02,19,0.00
2008,04,22,02,20,0.00
2008,04,22,02,21,0.00
2008,04,22,02,22,0.00
2008,04,22,02,23,0.00
2008,04,22,02,24,0.00
2008,04,22,02,25,0.00
2008,04,22,02,26,0.00
2008,04,22,02,27,0.00
2008,04,22,02,28,0.00
2008,04,22,02,29,0.00
2008,04,22,02,30,0.00
2008,04,22,02,31,0.00
2008,04,22,02,32,0.00
2008,04,22,02,33,0.00
2008,04,22,02,34,0.00
2008,04,22,02,35,0.00
2008,04,22,02,36,0.00
2008,04,22,02,37,0.00
2008,04,22,02,38,0.00
2008,04,22,02,39,0.00
2008,04,22,02,40,0.00
2008,04,22,02,41,0.00
2008,04,22,02,42,0.00
2008,04,22,02,43,0.00
2008,04,22,02,44,0.00
2008,04,22,02,45,0.00
2008,04,22,02,46,0.00
2008,04,22,02,47,0.00
2008,04,22,02,48,0.00
2008,04,22,02,49,0.00
2008,04,22,02,50,0.00
2008,04,22,02,51,0.00
2008,04,22,02,52,0.00
2008,04,22,02,53,0.00
2008,04,22,02,54,0.00
2008,04,22,02,55,0.00
2008,04,22,02,56,0.00
2008,04,22,02,57,0.00
2008,04,22,02,58,0.00
2008,04,22,02,59,0.00
2008,04,22,03,00,0.00
2008,04,22,03,01,0.00
2008,04,22,03,02,0.00
2008,04,22,03,03,0.00
2008,04,22,03,04,0.00
2008,04,22,03,05,0.00
2008,04,22,03,06,0.00
2008,04,22,03,07,0.00
2008,04,22,03,08,0.00
2008,04,22,03,09,0.00
2008,04,22,03,10,0.00
2008,04,22,03,11,0.00
2008,04,22,03,12,0.00
2008,04,22,03,13,0.00
2008,04,22,03,14,0.00
2008,04,22,03,15,0.00
2008,04,22,03,16,0.00
2008,04,22,03,17,0.00
2008,04,22,03,18,0.00
2008,04,22,03,19,0.00
2008,04,22,03,20,0.00
2008,04,22,03,21,0.00
2008,04,22,03,22,0.00
2008,04,22,03,23,0.00
2008,04,22,03,24,0.00
2008,04,22,03,25,0.00
2008,04,22,03,26,0.00
2008,04,22,03,27,0.00
2008,04,22,03,28,0.00
2008,04,22,03,29,0.00
2008,04,22,03,30,0.00
2008,04,22,03,31,0.00
2008,04,22,03,32,0.00
2008,04,22,03,33,0.00
2008,04,22,03,34,0.00
2008,04,22,03,35,0.00
2008,04,22,03,36,0.00
2008,04,22,03,37,0.00
2008,04,22,03,38,0.00
2008,04,22,03,39,0.00
2008,04,22,03,40,0.00
2008,04,22,03,41,0.00
2008,04,22,03,42,0.00
2008,04,22,03,43,0.00
2008,04,22,03,44,0.00
2008,04,22,03,45,0.00
2008,04,22,03,46,0.00
2008,04,22,03,47,0.00
2008,04,22,03,48,0.00
2008,04,22,03,49,0.00
2008,04,22,03,50,0.00
2008,04,22,03,51,0.00
2008,04,22,03,52,0.00
2008,04,22,03,53,0.00
2008,04,22,03,54,0.00
2008,04,22,03,55,0.00
2008,04,22,03,56,0.00
2008,04,22,03,57,0.00
2008,04,22,03,58,0.00
2008,04,22,03,59,0.00
2008,04,22,04,00,0.00
2008,04,22,04,01,0.00
2008,04,22,04,02,0.00
2008,04,22,04,03,0.00
2008,04,22,04,04,0.00
2008,04,22,04,05,0.00
2008,04,22,04,06,0.00
2008,04,22,04,07,0.00
2008,04,22,04,08,0.00
2008,04,22,04,09,0.00
2008,04,22,04,10,0.00
2008,04,22,04,11,0.00
2008,04,22,04,12,0.00
2008,04,22,04,13,0.00
2008,04,22,04,14,0.00
2008,04,22,04,15,0.00
2008,04,22,04,16,0.00
2008,04,22,04,17,0.00
2008,04,22,04,18,0.00
2008,04,22,04,19,0.00
2008,04,22,04,20,0.00
2008,04,22,04,21,0.00
2008,04,22,04,22,0.00
2008,04,22,04,23,0.00
2008,04,22,04,24,0.00
2008,04,22,04,25,0.00
2008,04,22,04,26,0.00
2008,04,22,04,27,0.00
2008,04,22,04,28,0.00
2008,04,22,04,29,0.00
2008,04,22,04,30,0.00
2008,04,22,04,31,0.00
2008,04,22,04,32,0.00
2008,04,22,04,33,0.00
2008,04,22,04,34,0.00
2008,04,22,04,35,0.00
2008,04,22,04,36,0.00
2008,04,22,04,37,0.00
2008,04,22,04,38,0.00
2008,04,22,04,39,0.00
2008,04,22,04,40,0.00
2008,04,22,04,41,0.00
2008,04,22,04,42,0.00
2008,04,22,04,43,0.00
2008,04,22,04,44,0.00
2008,04,22,04,45,0.00
2008,04,22,04,46,0.00
2008,04,22,04,47,0.00
2008,04,22,04,48,0.00
2008,04,22,04,49,0.00
2008,04,22,04,50,0.00
2008,04,22,04,51,0.00
2008,04,22,04,52,0.00
2008,04,22,04,53,0.00
2008,04,22,04,54,0.00
2008,04,22,04,55,0.00
2008,04,22,04,56,0.00
2008,04,22,04,57,0.00
2008,04,22,04,58,0.00
2008,04,22,04,59,0.00
2008,04,22,05,00,0.00
2008,04,22,05,01,0.00
2008,04,22,05,02,0.00
2008,04,22,05,03,0.00
2008,04,22,05,04,0.00
2008,04,22,05,05,0.00
2008,04,22,05,06,0.00
2008,04,22,05,07,0.00
2008,04,22,05,08,0.00
2008,04,22,05,09,0.00
2008,04,22,05,10,0.00
2008,04,22,05,11,0.00
2008,04,22,05,12,0.00
2008,04,22,05,13,0.00
2008,04,22,05,14,0.00
2008,04,22,05,15,0.00
2008,04,22,05,16,0.00
2008,04,22,05,17,0.00
2008,04,22,05,18,0.00
2008,04,22,05,19,0.00
2008,04,22,05,20,0.00
2008,04,22,05,21,0.00
2008,04,22,05,22,0.00
2008,04,22,05,23,0.00
2008,04,22,05,24,0.00
2008,04,22,05,25,0.00
2008,04,22,05,26,0.00
2008,04,22,05,27,0.00
2008,04,22,05,28,0.00
2008,04,22,05,29,0.00
2008,04,22,05,30,0.00
2008,04,22,05,31,0.00
2008,04,22,05,32,0.00
2008,04,22,05,33,0.00
2008,04,22,05,34,0.00
2008,04,22,05,35,0.00
2008,04,22,05,36,0.00
2008,04,22,05,37,0.00
2008,04,22,05,38,0.00
2008,04,22,05,39,0.00
2008,04,22,05,40,0.00
2008,04,22,05,41,0.00
2008,04,22,05,42,0.00
2008,04,22,05,43,0.00
2008,04,22,05,44,0.00
2008,04,22,05,45,0.00
2008,04,22,05,46,0.00
2008,04,22,05,47,0.00
2008,04,22,05,48,0.00
2008,04,22,05,49,0.00
2008,04,22,05,50,0.00
2008,04,22,05,51,0.00
2008,04,22,05,52,0.00
2008,04,22,05,53,0.00
2008,04,22,05,54,0.00
2008,04,22,05,55,0.00
2008,04,22,05,56,0.00
2008,04,22,05,57,0.00
2008,04,22,05,58,0.00
2008,04,22,05,59,0.00
2008,04,22,06,00,0.00
2008,04,22,06,01,0.00
2008,04,22,06,02,0.00
2008,04,22,06,03,0.00
2008,04,22,06,04,0.00
2008,04,22,06,05,0.00
2008,04,22,06,06,0.00
2008,04,22,06,07,0.00
2008,04,22,06,08,0.00
2008,04,22,06,09,0.00
2008,04,22,06,10,0.00
2008,04,22,06,11,0.00
2008,04,22,06,12,2.80
2008,04,22,06,13,5.00
2008,04,22,06,14,5.00
2008,04,22,06,15,5.00
2008,04,22,06,16,5.70
2008,04,22,06,17,7.00
2008,04,22,06,18,7.00
2008,04,22,06,19,7.00
2008,04,22,06,20,7.00
2008,04,22,06,21,7.00
2008,04,22,06,22,7.00
2008,04,22,06,23,7.00
2008,04,22,06,24,7.00
2008,04,22,06,25,7.00
2008,04,22,06,26,7.00
2008,04,22,06,27,7.00
2008,04,22,06,28,7.00
2008,04,22,06,29,7.00
2008,04,22,06,30,8.40
2008,04,22,06,31,9.00
2008,04,22,06,32,11.00
2008,04,22,06,33,11.30
2008,04,22,06,34,12.00
2008,04,22,06,35,12.00
2008,04,22,06,36,13.30
2008,04,22,06,37,15.80
2008,04,22,06,38,16.00
2008,04,22,06,39,16.50
2008,04,22,06,40,18.00
2008,04,22,06,41,18.00
2008,04,22,06,42,18.60
2008,04,22,06,43,19.00
2008,04,22,06,44,19.00
2008,04,22,06,45,19.70
2008,04,22,06,46,21.00
2008,04,22,06,47,22.10
2008,04,22,06,48,23.00
2008,04,22,06,49,23.00
2008,04,22,06,50,23.30
2008,04,22,06,51,25.30
2008,04,22,06,52,26.00
2008,04,22,06,53,27.20
2008,04,22,06,54,29.60
2008,04,22,06,55,31.90
2008,04,22,06,56,33.40
2008,04,22,06,57,36.20
2008,04,22,06,58,41.50
2008,04,22,06,59,45.80
2008,04,22,07,00,51.70
2008,04,22,07,01,55.50
2008,04,22,07,02,56.00
2008,04,22,07,03,56.70
2008,04,22,07,04,58.00
2008,04,22,07,05,55.20
2008,04,22,07,06,48.80
2008,04,22,07,07,40.10
2008,04,22,07,08,42.80
2008,04,22,07,09,47.20
2008,04,22,07,10,50.10
2008,04,22,07,11,53.10
2008,04,22,07,12,55.80
2008,04,22,07,13,56.20
2008,04,22,07,14,58.60
2008,04,22,07,15,60.80
2008,04,22,07,16,63.80
2008,04,22,07,17,65.00
2008,04,22,07,18,63.40
2008,04,22,07,19,60.00
2008,04,22,07,20,60.00
2008,04,22,07,21,60.80
2008,04,22,07,22,61.00
2008,04,22,07,23,58.40
2008,04,22,07,24,54.20
2008,04,22,07,25,52.80
2008,04,22,07,26,50.40
2008,04,22,07,27,49.90
2008,04,22,07,28,51.00
2008,04,22,07,29,51.00
2008,04,22,07,30,59.50
2008,04,22,07,31,57.60
2008,04,22,07,32,53.70
2008,04,22,07,33,53.00
2008,04,22,07,34,50.80
2008,04,22,07,35,47.30
2008,04,22,07,36,45.90
2008,04,22,07,37,44.00
2008,04,22,07,38,44.00
2008,04,22,07,39,44.00
2008,04,22,07,40,44.00
2008,04,22,07,41,42.30
2008,04,22,07,42,44.00
2008,04,22,07,43,49.40
2008,04,22,07,44,51.00
2008,04,22,07,45,52.50
2008,04,22,07,46,54.00
2008,04,22,07,47,48.20
2008,04,22,07,48,46.00
2008,04,22,07,49,46.00
2008,04,22,07,50,46.00
2008,04,22,07,51,46.00
2008,04,22,07,52,46.00
2008,04,22,07,53,46.00
2008,04,22,07,54,44.20
2008,04,22,07,55,44.00
2008,04,22,07,56,44.00
2008,04,22,07,57,44.00
2008,04,22,07,58,44.00
2008,04,22,07,59,45.90
2008,04,22,08,00,44.00
2008,04,22,08,01,44.50
2008,04,22,08,02,46.00
2008,04,22,08,03,46.00
2008,04,22,08,04,46.00
2008,04,22,08,05,46.90
2008,04,22,08,06,46.00
2008,04,22,08,07,46.00
2008,04,22,08,08,46.00
2008,04,22,08,09,46.00
2008,04,22,08,10,46.00
2008,04,22,08,11,46.90
2008,04,22,08,12,47.70
2008,04,22,08,13,53.00
2008,04,22,08,14,50.20
2008,04,22,08,15,47.00
2008,04,22,08,16,47.00
2008,04,22,08,17,47.00
2008,04,22,08,18,47.00
2008,04,22,08,19,47.00
2008,04,22,08,20,47.00
2008,04,22,08,21,48.20
2008,04,22,08,22,49.00
2008,04,22,08,23,47.00
2008,04,22,08,24,47.00
2008,04,22,08,25,47.80
2008,04,22,08,26,49.00
2008,04,22,08,27,49.00
2008,04,22,08,28,49.00
2008,04,22,08,29,49.00
2008,04,22,08,30,49.00
2008,04,22,08,31,49.00
2008,04,22,08,32,49.00
2008,04,22,08,33,49.00
2008,04,22,08,34,49.00
2008,04,22,08,35,49.40
2008,04,22,08,36,56.60
2008,04,22,08,37,70.40
2008,04,22,08,38,116.00
2008,04,22,08,39,111.70
2008,04,22,08,40,64.90
2008,04,22,08,41,66.20
2008,04,22,08,42,60.00
2008,04,22,08,43,56.90
2008,04,22,08,44,53.00
2008,04,22,08,45,53.00
2008,04,22,08,46,53.00
2008,04,22,08,47,53.00
2008,04,22,08,48,54.80
2008,04,22,08,49,60.90
2008,04,22,08,50,62.00
2008,04,22,08,51,67.60
2008,04,22,08,52,95.40
2008,04,22,08,53,87.00
2008,04,22,08,54,97.90
2008,04,22,08,55,136.10
2008,04,22,08,56,107.00
2008,04,22,08,57,107.00
2008,04,22,08,58,391.30
2008,04,22,08,59,406.00
2008,04,22,09,00,408.10
2008,04,22,09,01,412.10
2008,04,22,09,02,416.80
2008,04,22,09,03,423.30
2008,04,22,09,04,424.40
2008,04,22,09,05,432.40
2008,04,22,09,06,436.50
2008,04,22,09,07,443.00
2008,04,22,09,08,445.70
2008,04,22,09,09,449.30
2008,04,22,09,10,452.20
2008,04,22,09,11,454.70
2008,04,22,09,12,458.40
2008,04,22,09,13,461.50
2008,04,22,09,14,463.40
2008,04,22,09,15,465.50
2008,04,22,09,16,469.10
2008,04,22,09,17,470.40
2008,04,22,09,18,470.60
2008,04,22,09,19,474.20
2008,04,22,09,20,478.20
2008,04,22,09,21,481.90
2008,04,22,09,22,483.20
2008,04,22,09,23,485.00
2008,04,22,09,24,485.00
2008,04,22,09,25,488.70
2008,04,22,09,26,493.60
2008,04,22,09,27,498.70
2008,04,22,09,28,501.20
2008,04,22,09,29,503.20
2008,04,22,09,30,504.90
2008,04,22,09,31,507.20
2008,04,22,09,32,509.40
2008,04,22,09,33,512.80
2008,04,22,09,34,515.20
2008,04,22,09,35,517.80
2008,04,22,09,36,520.00
2008,04,22,09,37,522.60
2008,04,22,09,38,524.00
2008,04,22,09,39,524.00
2008,04,22,09,40,529.70
2008,04,22,09,41,530.90
2008,04,22,09,42,526.50
2008,04,22,09,43,534.00
2008,04,22,09,44,543.80
2008,04,22,09,45,547.30
2008,04,22,09,46,552.40
2008,04,22,09,47,566.10
2008,04,22,09,48,570.20
2008,04,22,09,49,554.00
2008,04,22,09,50,561.70
2008,04,22,09,51,575.20
2008,04,22,09,52,578.90
2008,04,22,09,53,579.50
2008,04,22,09,54,582.80
2008,04,22,09,55,586.10
2008,04,22,09,56,586.80
2008,04,22,09,57,587.20
2008,04,22,09,58,589.00
2008,04,22,09,59,590.20
2008,04,22,10,00,592.00
2008,04,22,10,01,592.00
2008,04,22,10,02,595.80
2008,04,22,10,03,596.00
2008,04,22,10,04,596.80
2008,04,22,10,05,599.00
2008,04,22,10,06,599.00
2008,04,22,10,07,599.00
2008,04,22,10,08,606.20
2008,04,22,10,09,609.50
2008,04,22,10,10,616.40
2008,04,22,10,11,616.90
2008,04,22,10,12,620.80
2008,04,22,10,13,625.90
2008,04,22,10,14,630.40
2008,04,22,10,15,636.70
2008,04,22,10,16,640.60
2008,04,22,10,17,644.50
2008,04,22,10,18,649.00
2008,04,22,10,19,653.30
2008,04,22,10,20,654.00
2008,04,22,10,21,657.00
2008,04,22,10,22,657.00
2008,04,22,10,23,657.00
2008,04,22,10,24,658.30
2008,04,22,10,25,662.00
2008,04,22,10,26,670.00
2008,04,22,10,27,670.00
2008,04,22,10,28,670.00
2008,04,22,10,29,570.00
2008,04,22,10,30,490.00
2008,04,22,10,31,490.00
2008,04,22,10,32,559.70
2008,04,22,10,33,481.20
2008,04,22,10,34,510.00
2008,04,22,10,35,510.00
2008,04,22,10,36,495.90
2008,04,22,10,37,544.80
2008,04,22,10,38,547.60
2008,04,22,10,39,580.60
2008,04,22,10,40,548.00
2008,04,22,10,41,510.30
2008,04,22,10,42,472.80
2008,04,22,10,43,469.00
2008,04,22,10,44,476.30
2008,04,22,10,45,526.00
2008,04,22,10,46,496.90
2008,04,22,10,47,454.10
2008,04,22,10,48,448.40
2008,04,22,10,49,509.40
2008,04,22,10,50,530.70
2008,04,22,10,51,524.30
2008,04,22,10,52,493.60
2008,04,22,10,53,496.10
2008,04,22,10,54,563.20
2008,04,22,10,55,612.80
2008,04,22,10,56,599.90
2008,04,22,10,57,485.00
2008,04,22,10,58,564.10
2008,04,22,10,59,647.00
2008,04,22,11,00,672.20
2008,04,22,11,01,668.00
2008,04,22,11,02,679.20
2008,04,22,11,03,757.60
2008,04,22,11,04,742.90
2008,04,22,11,05,739.40
2008,04,22,11,06,737.30
2008,04,22,11,07,725.10
2008,04,22,11,08,707.00
2008,04,22,11,09,689.20
2008,04,22,11,10,671.40
2008,04,22,11,11,657.90
2008,04,22,11,12,652.70
2008,04,22,11,13,644.70
2008,04,22,11,14,640.00
2008,04,22,11,15,640.00
2008,04,22,11,16,653.50
2008,04,22,11,17,658.70
2008,04,22,11,18,666.70
2008,04,22,11,19,667.40
2008,04,22,11,20,665.20
2008,04,22,11,21,664.80
2008,04,22,11,22,651.00
2008,04,22,11,23,643.40
2008,04,22,11,24,642.00
2008,04,22,11,25,624.10
2008,04,22,11,26,607.00
2008,04,22,11,27,597.10
2008,04,22,11,28,596.00
2008,04,22,11,29,583.80
2008,04,22,11,30,588.50
2008,04,22,11,31,591.20
2008,04,22,11,32,593.20
2008,04,22,11,33,594.00
2008,04,22,11,34,589.70
2008,04,22,11,35,598.80
2008,04,22,11,36,611.50
2008,04,22,11,37,619.40
2008,04,22,11,38,623.50
2008,04,22,11,39,632.00
2008,04,22,11,40,639.90
2008,04,22,11,41,653.70
2008,04,22,11,42,680.00
2008,04,22,11,43,692.10
2008,04,22,11,44,691.80
2008,04,22,11,45,675.00
2008,04,22,11,46,662.80
2008,04,22,11,47,668.00
2008,04,22,11,48,694.30
2008,04,22,11,49,719.00
2008,04,22,11,50,728.50
2008,04,22,11,51,735.10
2008,04,22,11,52,737.00
2008,04,22,11,53,737.00
2008,04,22,11,54,676.10
2008,04,22,11,55,657.80
2008,04,22,11,56,644.20
2008,04,22,11,57,648.00
2008,04,22,11,58,658.50
2008,04,22,11,59,685.70
2008,04,22,12,00,714.20
2008,04,22,12,01,743.80
2008,04,22,12,02,753.90
2008,04,22,12,03,754.50
2008,04,22,12,04,752.00
2008,04,22,12,05,752.00
2008,04,22,12,06,740.60
2008,04,22,12,07,750.80
2008,04,22,12,08,780.00
2008,04,22,12,09,796.80
2008,04,22,12,10,806.00
2008,04,22,12,11,809.10
2008,04,22,12,12,816.60
2008,04,22,12,13,815.70
2008,04,22,12,14,791.70
2008,04,22,12,15,767.50
2008,04,22,12,16,758.00
2008,04,22,12,17,751.40
2008,04,22,12,18,760.80
2008,04,22,12,19,737.00
2008,04,22,12,20,734.80
2008,04,22,12,21,725.00
2008,04,22,12,22,716.20
2008,04,22,12,23,720.10
2008,04,22,12,24,720.10
2008,04,22,12,25,729.60
2008,04,22,12,26,732.80
2008,04,22,12,27,722.00
2008,04,22,12,28,729.20
2008,04,22,12,29,739.80
2008,04,22,12,30,756.70
2008,04,22,12,31,762.50
2008,04,22,12,32,774.00
2008,04,22,12,33,796.00
2008,04,22,12,34,633.50
2008,04,22,12,35,517.00
2008,04,22,12,36,570.80
2008,04,22,12,37,781.40
2008,04,22,12,38,811.90
2008,04,22,12,39,781.80
2008,04,22,12,40,757.90
2008,04,22,12,41,744.30
2008,04,22,12,42,748.50
2008,04,22,12,43,742.30
2008,04,22,12,44,736.80
2008,04,22,12,45,706.20
2008,04,22,12,46,728.20
2008,04,22,12,47,738.00
2008,04,22,12,48,738.00
2008,04,22,12,49,701.20
2008,04,22,12,50,624.00
2008,04,22,12,51,610.00
2008,04,22,12,52,404.80
2008,04,22,12,53,368.50
2008,04,22,12,54,348.50
2008,04,22,12,55,345.00
2008,04,22,12,56,346.90
2008,04,22,12,57,357.30
2008,04,22,12,58,381.60
2008,04,22,12,59,420.70
2008,04,22,13,00,475.30
2008,04,22,13,01,514.00
2008,04,22,13,02,534.90
2008,04,22,13,03,575.10
2008,04,22,13,04,513.20
2008,04,22,13,05,467.00
2008,04,22,13,06,433.60
2008,04,22,13,07,399.30
2008,04,22,13,08,371.00
2008,04,22,13,09,354.80
2008,04,22,13,10,348.20
2008,04,22,13,11,342.10
2008,04,22,13,12,335.60
2008,04,22,13,13,330.00
2008,04,22,13,14,320.70
2008,04,22,13,15,316.00
2008,04,22,13,16,326.10
2008,04,22,13,17,347.70
2008,04,22,13,18,364.00
2008,04,22,13,19,392.60
2008,04,22,13,20,434.80
2008,04,22,13,21,447.00
2008,04,22,13,22,439.10
2008,04,22,13,23,418.40
2008,04,22,13,24,400.70
2008,04,22,13,25,391.10
2008,04,22,13,26,392.60
2008,04,22,13,27,405.20
2008,04,22,13,28,435.80
2008,04,22,13,29,460.00
2008,04,22,13,30,478.30
2008,04,22,13,31,488.10
2008,04,22,13,32,491.50
2008,04,22,13,33,496.20
2008,04,22,13,34,512.00
2008,04,22,13,35,537.70
2008,04,22,13,36,533.50
2008,04,22,13,37,529.50
2008,04,22,13,38,531.20
2008,04,22,13,39,517.90
2008,04,22,13,40,513.70
2008,04,22,13,41,493.00
2008,04,22,13,42,481.90
2008,04,22,13,43,473.30
2008,04,22,13,44,466.90
2008,04,22,13,45,456.00
2008,04,22,13,46,441.00
2008,04,22,13,47,430.50
2008,04,22,13,48,424.50
2008,04,22,13,49,424.00
2008,04,22,13,50,424.80
2008,04,22,13,51,425.10
2008,04,22,13,52,427.40
2008,04,22,13,53,429.80
2008,04,22,13,54,432.70
2008,04,22,13,55,434.00
2008,04,22,13,56,434.00
2008,04,22,13,57,443.00
2008,04,22,13,58,442.40
2008,04,22,13,59,438.90
2008,04,22,14,00,436.00
2008,04,22,14,01,434.70
2008,04,22,14,02,431.60
2008,04,22,14,03,425.00
2008,04,22,14,04,426.70
2008,04,22,14,05,431.40
2008,04,22,14,06,433.20
2008,04,22,14,07,439.90
2008,04,22,14,08,449.60
2008,04,22,14,09,462.70
2008,04,22,14,10,464.10
2008,04,22,14,11,447.40
2008,04,22,14,12,430.30
2008,04,22,14,13,417.00
2008,04,22,14,14,410.30
2008,04,22,14,15,410.50
2008,04,22,14,16,416.10
2008,04,22,14,17,428.70
2008,04,22,14,18,441.70
2008,04,22,14,19,469.00
2008,04,22,14,20,478.30
2008,04,22,14,21,485.30
2008,04,22,14,22,499.60
2008,04,22,14,23,508.00
2008,04,22,14,24,524.20
2008,04,22,14,25,548.80
2008,04,22,14,26,605.00
2008,04,22,14,27,676.90
2008,04,22,14,28,708.00
2008,04,22,14,29,708.00
2008,04,22,14,30,708.00
2008,04,22,14,31,730.20
2008,04,22,14,32,742.20
2008,04,22,14,33,879.00
2008,04,22,14,34,791.50
2008,04,22,14,35,631.00
2008,04,22,14,36,631.00
2008,04,22,14,37,549.30
2008,04,22,14,38,626.80
2008,04,22,14,39,689.00
2008,04,22,14,40,624.10
2008,04,22,14,41,552.00
2008,04,22,14,42,550.40
2008,04,22,14,43,510.10
2008,04,22,14,44,565.00
2008,04,22,14,45,573.00
2008,04,22,14,46,573.00
2008,04,22,14,47,557.40
2008,04,22,14,48,547.30
2008,04,22,14,49,527.20
2008,04,22,14,50,527.10
2008,04,22,14,51,517.50
2008,04,22,14,52,550.40
2008,04,22,14,53,626.40
2008,04,22,14,54,705.00
2008,04,22,14,55,717.00
2008,04,22,14,56,716.50
2008,04,22,14,57,731.90
2008,04,22,14,58,775.00
2008,04,22,14,59,732.90
2008,04,22,15,00,710.00
2008,04,22,15,01,559.40
2008,04,22,15,02,462.50
2008,04,22,15,03,445.00
2008,04,22,15,04,445.00
2008,04,22,15,05,439.60
2008,04,22,15,06,408.50
2008,04,22,15,07,418.00
2008,04,22,15,08,416.10
2008,04,22,15,09,405.30
2008,04,22,15,10,386.60
2008,04,22,15,11,375.80
2008,04,22,15,12,377.20
2008,04,22,15,13,389.40
2008,04,22,15,14,413.90
2008,04,22,15,15,425.60
2008,04,22,15,16,454.00
2008,04,22,15,17,487.70
2008,04,22,15,18,472.20
2008,04,22,15,19,510.40
2008,04,22,15,20,549.70
2008,04,22,15,21,565.50
2008,04,22,15,22,544.00
2008,04,22,15,23,481.30
2008,04,22,15,24,458.20
2008,04,22,15,25,445.10
2008,04,22,15,26,453.30
2008,04,22,15,27,490.60
2008,04,22,15,28,460.90
2008,04,22,15,29,452.00
2008,04,22,15,30,452.00
2008,04,22,15,31,471.60
2008,04,22,15,32,468.40
2008,04,22,15,33,449.20
2008,04,22,15,34,440.70
2008,04,22,15,35,418.40
2008,04,22,15,36,378.20
2008,04,22,15,37,378.30
2008,04,22,15,38,387.10
2008,04,22,15,39,385.60
2008,04,22,15,40,394.00
2008,04,22,15,41,426.90
2008,04,22,15,42,416.10
2008,04,22,15,43,379.80
2008,04,22,15,44,359.30
2008,04,22,15,45,344.00
2008,04,22,15,46,327.60
2008,04,22,15,47,311.20
2008,04,22,15,48,295.00
2008,04,22,15,49,281.10
2008,04,22,15,50,269.00
2008,04,22,15,51,258.10
2008,04,22,15,52,251.50
2008,04,22,15,53,245.00
2008,04,22,15,54,236.70
2008,04,22,15,55,230.90
2008,04,22,15,56,224.70
2008,04,22,15,57,218.20
2008,04,22,15,58,211.10
2008,04,22,15,59,205.20
2008,04,22,16,00,199.90
2008,04,22,16,01,199.00
2008,04,22,16,02,199.00
2008,04,22,16,03,198.00
2008,04,22,16,04,197.00
2008,04,22,16,05,195.20
2008,04,22,16,06,195.00
2008,04,22,16,07,194.40
2008,04,22,16,08,192.60
2008,04,22,16,09,190.00
2008,04,22,16,10,185.70
2008,04,22,16,11,183.10
2008,04,22,16,12,183.00
2008,04,22,16,13,183.00
2008,04,22,16,14,183.00
2008,04,22,16,15,181.80
2008,04,22,16,16,177.10
2008,04,22,16,17,171.30
2008,04,22,16,18,165.00
2008,04,22,16,19,160.80
2008,04,22,16,20,157.10
2008,04,22,16,21,156.00
2008,04,22,16,22,155.30
2008,04,22,16,23,155.00
2008,04,22,16,24,152.20
2008,04,22,16,25,146.50
2008,04,22,16,26,140.60
2008,04,22,16,27,137.70
2008,04,22,16,28,137.00
2008,04,22,16,29,138.70
2008,04,22,16,30,139.00
2008,04,22,16,31,139.00
2008,04,22,16,32,137.90
2008,04,22,16,33,134.90
2008,04,22,16,34,129.50
2008,04,22,16,35,120.70
2008,04,22,16,36,115.40
2008,04,22,16,37,111.40
2008,04,22,16,38,107.90
2008,04,22,16,39,105.60
2008,04,22,16,40,104.20
2008,04,22,16,41,102.00
2008,04,22,16,42,102.00
2008,04,22,16,43,102.00
2008,04,22,16,44,103.20
2008,04,22,16,45,104.00
2008,04,22,16,46,104.90
2008,04,22,16,47,107.10
2008,04,22,16,48,109.80
2008,04,22,16,49,113.00
2008,04,22,16,50,113.00
2008,04,22,16,51,119.20
2008,04,22,16,52,121.00
2008,04,22,16,53,119.80
2008,04,22,16,54,117.50
2008,04,22,16,55,116.00
2008,04,22,16,56,114.80
2008,04,22,16,57,117.10
2008,04,22,16,58,119.90
2008,04,22,16,59,125.80
2008,04,22,17,00,133.70
2008,04,22,17,01,141.00
2008,04,22,17,02,150.50
2008,04,22,17,03,157.90
2008,04,22,17,04,162.80
2008,04,22,17,05,167.30
2008,04,22,17,06,169.70
2008,04,22,17,07,171.50
2008,04,22,17,08,172.00
2008,04,22,17,09,173.70
2008,04,22,17,10,174.00
2008,04,22,17,11,176.40
2008,04,22,17,12,178.00
2008,04,22,17,13,178.60
2008,04,22,17,14,179.00